Year,Month,Day,Hour,Minute,Value (Times are PST for temperature in C)
2016,06,04,01,35,13.30
2016,06,04,01,36,13.30
2016,06,04,01,37,13.30
2016,06,04,01,38,13.30
2016,06,04,01,39,13.30
2016,06,04,01,40,13.30
2016,06,04,01,41,13.30
2016,06,04,01,42,13.30
2016,06,04,01,43,13.30
2016,06,04,01,44,13.30
2016,06,04,01,45,13.30
2016,06,04,01,46,13.30
2016,06,04,01,47,13.30
2016,06,04,01,48,13.30
2016,06,04,01,49,13.30
2016,06,04,01,50,13.30
2016,06,04,01,51,13.30
2016,06,04,01,52,13.30
2016,06,04,01,53,13.30
2016,06,04,01,54,13.30
2016,06,04,01,55,13.30
2016,06,04,01,56,13.30
2016,06,04,01,57,13.30
2016,06,04,01,58,13.30
2016,06,04,01,59,13.30
2016,06,04,02,00,13.30
2016,06,04,02,01,13.30
2016,06,04,02,02,13.30
2016,06,04,02,03,13.30
2016,06,04,02,04,13.30
2016,06,04,02,05,13.30
2016,06,04,02,06,13.30
2016,06,04,02,07,13.30
2016,06,04,02,08,13.30
2016,06,04,02,09,13.30
2016,06,04,02,10,13.30
2016,06,04,02,11,13.30
2016,06,04,02,12,13.30
2016,06,04,02,13,13.30
2016,06,04,02,14,13.30
2016,06,04,02,15,13.30
2016,06,04,02,16,13.30
2016,06,04,02,17,13.30
2016,06,04,02,18,13.30
2016,06,04,02,19,13.30
2016,06,04,02,20,13.30
2016,06,04,02,21,13.30
2016,06,04,02,22,13.30
2016,06,04,02,23,13.30
2016,06,04,02,24,13.30
2016,06,04,02,25,13.30
2016,06,04,02,26,13.30
2016,06,04,02,27,13.30
2016,06,04,02,28,13.30
2016,06,04,02,29,13.30
2016,06,04,02,30,13.30
2016,06,04,02,31,13.10
2016,06,04,02,32,13.10
2016,06,04,02,33,13.10
2016,06,04,02,34,13.10
2016,06,04,02,35,13.10
2016,06,04,02,36,13.10
2016,06,04,02,37,13.10
2016,06,04,02,38,13.10
2016,06,04,02,39,13.10
2016,06,04,02,40,13.10
2016,06,04,02,41,13.10
2016,06,04,02,42,13.10
2016,06,04,02,43,13.10
2016,06,04,02,44,13.10
2016,06,04,02,45,13.10
2016,06,04,02,46,13.10
2016,06,04,02,47,13.10
2016,06,04,02,48,13.10
2016,06,04,02,49,13.10
2016,06,04,02,50,13.10
2016,06,04,02,51,13.10
2016,06,04,02,52,13.10
2016,06,04,02,53,13.10
2016,06,04,02,54,13.10
2016,06,04,02,55,13.10
2016,06,04,02,56,13.10
2016,06,04,02,57,13.10
2016,06,04,02,58,13.10
2016,06,04,02,59,13.10
2016,06,04,03,00,13.10
2016,06,04,03,01,12.70
2016,06,04,03,02,12.70
2016,06,04,03,03,12.70
2016,06,04,03,04,12.70
2016,06,04,03,05,12.70
2016,06,04,03,06,12.70
2016,06,04,03,07,12.70
2016,06,04,03,08,12.70
2016,06,04,03,09,12.70
2016,06,04,03,10,12.70
2016,06,04,03,11,12.70
2016,06,04,03,12,12.70
2016,06,04,03,13,12.70
2016,06,04,03,14,12.70
2016,06,04,03,15,12.70
2016,06,04,03,16,12.70
2016,06,04,03,17,12.70
2016,06,04,03,18,12.70
2016,06,04,03,19,12.70
2016,06,04,03,20,12.70
2016,06,04,03,21,12.70
2016,06,04,03,22,12.70
2016,06,04,03,23,12.70
2016,06,04,03,24,12.70
2016,06,04,03,25,12.70
2016,06,04,03,26,12.70
2016,06,04,03,27,12.70
2016,06,04,03,28,12.70
2016,06,04,03,29,12.70
2016,06,04,03,30,12.70
2016,06,04,03,31,12.90
2016,06,04,03,32,12.90
2016,06,04,03,33,12.90
2016,06,04,03,34,12.90
2016,06,04,03,35,12.90
2016,06,04,03,36,12.90
2016,06,04,03,37,12.90
2016,06,04,03,38,12.90
2016,06,04,03,39,12.90
2016,06,04,03,40,12.90
2016,06,04,03,41,12.90
2016,06,04,03,42,12.90
2016,06,04,03,43,12.90
2016,06,04,03,44,12.90
2016,06,04,03,45,12.90
2016,06,04,03,46,12.90
2016,06,04,03,47,12.90
2016,06,04,03,48,12.90
2016,06,04,03,49,12.90
2016,06,04,03,50,12.90
2016,06,04,03,51,12.90
2016,06,04,03,52,12.90
2016,06,04,03,53,12.90
2016,06,04,03,54,12.90
2016,06,04,03,55,12.90
2016,06,04,03,56,12.90
2016,06,04,03,57,12.90
2016,06,04,03,58,12.90
2016,06,04,03,59,12.90
2016,06,04,04,00,12.90
2016,06,04,04,01,13.30
2016,06,04,04,02,13.30
2016,06,04,04,03,13.30
2016,06,04,04,04,13.30
2016,06,04,04,05,13.30
2016,06,04,04,06,13.30
2016,06,04,04,07,13.30
2016,06,04,04,08,13.30
2016,06,04,04,09,13.30
2016,06,04,04,10,13.30
2016,06,04,04,11,13.30
2016,06,04,04,12,13.30
2016,06,04,04,13,13.30
2016,06,04,04,14,13.30
2016,06,04,04,15,13.30
2016,06,04,04,16,13.30
2016,06,04,04,17,13.30
2016,06,04,04,18,13.30
2016,06,04,04,19,13.30
2016,06,04,04,20,13.30
2016,06,04,04,21,13.30
2016,06,04,04,22,13.30
2016,06,04,04,23,13.30
2016,06,04,04,24,13.30
2016,06,04,04,25,13.30
2016,06,04,04,26,13.30
2016,06,04,04,27,13.30
2016,06,04,04,28,13.30
2016,06,04,04,29,13.30
2016,06,04,04,30,13.30
2016,06,04,04,31,12.70
2016,06,04,04,32,12.70
2016,06,04,04,33,12.70
2016,06,04,04,34,12.70
2016,06,04,04,35,12.70
2016,06,04,04,36,12.70
2016,06,04,04,37,12.70
2016,06,04,04,38,12.70
2016,06,04,04,39,12.70
2016,06,04,04,40,12.70
2016,06,04,04,41,12.70
2016,06,04,04,42,12.70
2016,06,04,04,43,12.70
2016,06,04,04,44,12.70
2016,06,04,04,45,12.70
2016,06,04,04,46,12.70
2016,06,04,04,47,12.70
2016,06,04,04,48,12.70
2016,06,04,04,49,12.70
2016,06,04,04,50,12.70
2016,06,04,04,51,12.70
2016,06,04,04,52,12.70
2016,06,04,04,53,12.70
2016,06,04,04,54,12.70
2016,06,04,04,55,12.70
2016,06,04,04,56,12.70
2016,06,04,04,57,12.70
2016,06,04,04,58,12.70
2016,06,04,04,59,12.70
2016,06,04,05,00,12.70
2016,06,04,05,01,12.30
2016,06,04,05,02,12.30
2016,06,04,05,03,12.30
2016,06,04,05,04,12.30
2016,06,04,05,05,12.30
2016,06,04,05,06,12.30
2016,06,04,05,07,12.30
2016,06,04,05,08,12.30
2016,06,04,05,09,12.30
2016,06,04,05,10,12.30
2016,06,04,05,11,12.30
2016,06,04,05,12,12.30
2016,06,04,05,13,12.30
2016,06,04,05,14,12.30
2016,06,04,05,15,12.30
2016,06,04,05,16,12.30
2016,06,04,05,17,12.30
2016,06,04,05,18,12.30
2016,06,04,05,19,12.30
2016,06,04,05,20,12.30
2016,06,04,05,21,12.30
2016,06,04,05,22,12.30
2016,06,04,05,23,12.30
2016,06,04,05,24,12.30
2016,06,04,05,25,12.30
2016,06,04,05,26,12.30
2016,06,04,05,27,12.30
2016,06,04,05,28,12.30
2016,06,04,05,29,12.30
2016,06,04,05,30,12.30
2016,06,04,05,31,12.30
2016,06,04,05,32,12.30
2016,06,04,05,33,12.30
2016,06,04,05,34,12.30
2016,06,04,05,35,12.30
2016,06,04,05,36,12.30
2016,06,04,05,37,12.30
2016,06,04,05,38,12.30
2016,06,04,05,39,12.30
2016,06,04,05,40,12.30
2016,06,04,05,41,12.30
2016,06,04,05,42,12.30
2016,06,04,05,43,12.30
2016,06,04,05,44,12.30
2016,06,04,05,45,12.30
2016,06,04,05,46,12.30
2016,06,04,05,47,12.30
2016,06,04,05,48,12.30
2016,06,04,05,49,12.30
2016,06,04,05,50,12.30
2016,06,04,05,51,12.30
2016,06,04,05,52,12.30
2016,06,04,05,53,12.30
2016,06,04,05,54,12.30
2016,06,04,05,55,12.30
2016,06,04,05,56,12.30
2016,06,04,05,57,12.30
2016,06,04,05,58,12.30
2016,06,04,05,59,12.30
2016,06,04,06,00,12.30
2016,06,04,06,01,12.20
2016,06,04,06,02,12.20
2016,06,04,06,03,12.20
2016,06,04,06,04,12.20
2016,06,04,06,05,12.20
2016,06,04,06,06,12.20
2016,06,04,06,07,12.20
2016,06,04,06,08,12.20
2016,06,04,06,09,12.20
2016,06,04,06,10,12.20
2016,06,04,06,11,12.20
2016,06,04,06,12,12.20
2016,06,04,06,13,12.20
2016,06,04,06,14,12.20
2016,06,04,06,15,12.20
2016,06,04,06,16,12.20
2016,06,04,06,17,12.20
2016,06,04,06,18,12.20
2016,06,04,06,19,12.20
2016,06,04,06,20,12.20
2016,06,04,06,21,12.20
2016,06,04,06,22,12.20
2016,06,04,06,23,12.20
2016,06,04,06,24,12.20
2016,06,04,06,25,12.20
2016,06,04,06,26,12.20
2016,06,04,06,27,12.20
2016,06,04,06,28,12.20
2016,06,04,06,29,12.20
2016,06,04,06,30,12.20
2016,06,04,06,31,12.50
2016,06,04,06,32,12.50
2016,06,04,06,33,12.50
2016,06,04,06,34,12.50
2016,06,04,06,35,12.50
2016,06,04,06,36,12.50
2016,06,04,06,37,12.50
2016,06,04,06,38,12.50
2016,06,04,06,39,12.50
2016,06,04,06,40,12.50
2016,06,04,06,41,12.50
2016,06,04,06,42,12.50
2016,06,04,06,43,12.50
2016,06,04,06,44,12.50
2016,06,04,06,45,12.50
2016,06,04,06,46,12.50
2016,06,04,06,47,12.50
2016,06,04,06,48,12.50
2016,06,04,06,49,12.50
2016,06,04,06,50,12.50
2016,06,04,06,51,12.50
2016,06,04,06,52,12.50
2016,06,04,06,53,12.50
2016,06,04,06,54,12.50
2016,06,04,06,55,12.50
2016,06,04,06,56,12.50
2016,06,04,06,57,12.50
2016,06,04,06,58,12.50
2016,06,04,06,59,12.50
2016,06,04,07,00,12.50
2016,06,04,07,01,12.80
2016,06,04,07,02,12.80
2016,06,04,07,03,12.80
2016,06,04,07,04,12.80
2016,06,04,07,05,12.80
2016,06,04,07,06,12.80
2016,06,04,07,07,12.80
2016,06,04,07,08,12.80
2016,06,04,07,09,12.80
2016,06,04,07,10,12.80
2016,06,04,07,11,12.80
2016,06,04,07,12,12.80
2016,06,04,07,13,12.80
2016,06,04,07,14,12.80
2016,06,04,07,15,12.80
2016,06,04,07,16,12.80
2016,06,04,07,17,12.80
2016,06,04,07,18,12.80
2016,06,04,07,19,12.80
2016,06,04,07,20,12.80
2016,06,04,07,21,12.80
2016,06,04,07,22,12.80
2016,06,04,07,23,12.80
2016,06,04,07,24,12.80
2016,06,04,07,25,12.80
2016,06,04,07,26,12.80
2016,06,04,07,27,12.80
2016,06,04,07,28,12.80
2016,06,04,07,29,12.80
2016,06,04,07,30,12.80
2016,06,04,07,31,12.70
2016,06,04,07,32,12.70
2016,06,04,07,33,12.70
2016,06,04,07,34,12.70
2016,06,04,07,35,12.70
2016,06,04,07,36,12.70
2016,06,04,07,37,12.70
2016,06,04,07,38,12.70
2016,06,04,07,39,12.70
2016,06,04,07,40,12.70
2016,06,04,07,41,12.70
2016,06,04,07,42,12.70
2016,06,04,07,43,12.70
2016,06,04,07,44,12.70
2016,06,04,07,45,12.70
2016,06,04,07,46,12.70
2016,06,04,07,47,12.70
2016,06,04,07,48,12.70
2016,06,04,07,49,12.70
2016,06,04,07,50,12.70
2016,06,04,07,51,12.70
2016,06,04,07,52,12.70
2016,06,04,07,53,12.70
2016,06,04,07,54,12.70
2016,06,04,07,55,12.70
2016,06,04,07,56,12.70
2016,06,04,07,57,12.70
2016,06,04,07,58,12.70
2016,06,04,07,59,12.70
2016,06,04,08,00,12.70
2016,06,04,08,01,13.20
2016,06,04,08,02,13.20
2016,06,04,08,03,13.20
2016,06,04,08,04,13.20
2016,06,04,08,05,13.20
2016,06,04,08,06,13.20
2016,06,04,08,07,13.20
2016,06,04,08,08,13.20
2016,06,04,08,09,13.20
2016,06,04,08,10,13.20
2016,06,04,08,11,13.20
2016,06,04,08,12,13.20
2016,06,04,08,13,13.20
2016,06,04,08,14,13.20
2016,06,04,08,15,13.20
2016,06,04,08,16,13.20
2016,06,04,08,17,13.20
2016,06,04,08,18,13.20
2016,06,04,08,19,13.20
2016,06,04,08,20,13.20
2016,06,04,08,21,13.20
2016,06,04,08,22,13.20
2016,06,04,08,23,13.20
2016,06,04,08,24,13.20
2016,06,04,08,25,13.20
2016,06,04,08,26,13.20
2016,06,04,08,27,13.20
2016,06,04,08,28,13.20
2016,06,04,08,29,13.20
2016,06,04,08,30,13.20
2016,06,04,08,31,14.10
2016,06,04,08,32,14.10
2016,06,04,08,33,14.10
2016,06,04,08,34,14.10
2016,06,04,08,35,14.10
2016,06,04,08,36,14.10
2016,06,04,08,37,14.10
2016,06,04,08,38,14.10
2016,06,04,08,39,14.10
2016,06,04,08,40,14.10
2016,06,04,08,41,14.10
2016,06,04,08,42,14.10
2016,06,04,08,43,14.10
2016,06,04,08,44,14.10
2016,06,04,08,45,14.10
2016,06,04,08,46,14.10
2016,06,04,08,47,14.10
2016,06,04,08,48,14.10
2016,06,04,08,49,14.10
2016,06,04,08,50,14.10
2016,06,04,08,51,14.10
2016,06,04,08,52,14.10
2016,06,04,08,53,14.10
2016,06,04,08,54,14.10
2016,06,04,08,55,14.10
2016,06,04,08,56,14.10
2016,06,04,08,57,14.10
2016,06,04,08,58,14.10
2016,06,04,08,59,14.10
2016,06,04,09,00,14.10
2016,06,04,09,01,14.80
2016,06,04,09,02,14.80
2016,06,04,09,03,14.80
2016,06,04,09,04,14.80
2016,06,04,09,05,14.80
2016,06,04,09,06,14.80
2016,06,04,09,07,14.80
2016,06,04,09,08,14.80
2016,06,04,09,09,14.80
2016,06,04,09,10,14.80
2016,06,04,09,11,14.80
2016,06,04,09,12,14.80
2016,06,04,09,13,14.80
2016,06,04,09,14,14.80
2016,06,04,09,15,14.80
2016,06,04,09,16,14.80
2016,06,04,09,17,14.80
2016,06,04,09,18,14.80
2016,06,04,09,19,14.80
2016,06,04,09,20,14.80
2016,06,04,09,21,14.80
2016,06,04,09,22,14.80
2016,06,04,09,23,14.80
2016,06,04,09,24,14.80
2016,06,04,09,25,14.80
2016,06,04,09,26,14.80
2016,06,04,09,27,14.80
2016,06,04,09,28,14.80
2016,06,04,09,29,14.80
2016,06,04,09,30,14.80
2016,06,04,09,31,15.70
2016,06,04,09,32,15.70
2016,06,04,09,33,15.70
2016,06,04,09,34,15.70
2016,06,04,09,35,15.70
2016,06,04,09,36,15.70
2016,06,04,09,37,15.70
2016,06,04,09,38,15.70
2016,06,04,09,39,15.70
2016,06,04,09,40,15.70
2016,06,04,09,41,15.70
2016,06,04,09,42,15.70
2016,06,04,09,43,15.70
2016,06,04,09,44,15.70
2016,06,04,09,45,15.70
2016,06,04,09,46,15.70
2016,06,04,09,47,15.70
2016,06,04,09,48,15.70
2016,06,04,09,49,15.70
2016,06,04,09,50,15.70
2016,06,04,09,51,15.70
2016,06,04,09,52,15.70
2016,06,04,09,53,15.70
2016,06,04,09,54,15.70
2016,06,04,09,55,15.70
2016,06,04,09,56,15.70
2016,06,04,09,57,15.70
2016,06,04,09,58,15.70
2016,06,04,09,59,15.70
2016,06,04,10,00,15.70
2016,06,04,10,01,15.40
2016,06,04,10,02,15.40
2016,06,04,10,03,15.40
2016,06,04,10,04,15.40
2016,06,04,10,05,15.40
2016,06,04,10,06,15.40
2016,06,04,10,07,15.40
2016,06,04,10,08,15.40
2016,06,04,10,09,15.40
2016,06,04,10,10,15.40
2016,06,04,10,11,15.40
2016,06,04,10,12,15.40
2016,06,04,10,13,15.40
2016,06,04,10,14,15.40
2016,06,04,10,15,15.40
2016,06,04,10,16,15.40
2016,06,04,10,17,15.40
2016,06,04,10,18,15.40
2016,06,04,10,19,15.40
2016,06,04,10,20,15.40
2016,06,04,10,21,15.40
2016,06,04,10,22,15.40
2016,06,04,10,23,15.40
2016,06,04,10,24,15.40
2016,06,04,10,25,15.40
2016,06,04,10,26,15.40
2016,06,04,10,27,15.40
2016,06,04,10,28,15.40
2016,06,04,10,29,15.40
2016,06,04,10,30,15.40
2016,06,04,10,31,15.80
2016,06,04,10,32,15.80
2016,06,04,10,33,15.80
2016,06,04,10,34,15.80
2016,06,04,10,35,15.80
2016,06,04,10,36,15.80
2016,06,04,10,37,15.80
2016,06,04,10,38,15.80
2016,06,04,10,39,15.80
2016,06,04,10,40,15.80
2016,06,04,10,41,15.80
2016,06,04,10,42,15.80
2016,06,04,10,43,15.80
2016,06,04,10,44,15.80
2016,06,04,10,45,15.80
2016,06,04,10,46,15.80
2016,06,04,10,47,15.80
2016,06,04,10,48,15.80
2016,06,04,10,49,15.80
2016,06,04,10,50,15.80
2016,06,04,10,51,15.80
2016,06,04,10,52,15.80
2016,06,04,10,53,15.80
2016,06,04,10,54,15.80
2016,06,04,10,55,15.80
2016,06,04,10,56,15.80
2016,06,04,10,57,15.80
2016,06,04,10,58,15.80
2016,06,04,10,59,15.80
2016,06,04,11,00,15.80
2016,06,04,11,01,17.20
2016,06,04,11,02,17.20
2016,06,04,11,03,17.20
2016,06,04,11,04,17.20
2016,06,04,11,05,17.20
2016,06,04,11,06,17.20
2016,06,04,11,07,17.20
2016,06,04,11,08,17.20
2016,06,04,11,09,17.20
2016,06,04,11,10,17.20
2016,06,04,11,11,17.20
2016,06,04,11,12,17.20
2016,06,04,11,13,17.20
2016,06,04,11,14,17.20
2016,06,04,11,15,17.20
2016,06,04,11,16,17.20
2016,06,04,11,17,17.20
2016,06,04,11,18,17.20
2016,06,04,11,19,17.20
2016,06,04,11,20,17.20
2016,06,04,11,21,17.20
2016,06,04,11,22,17.20
2016,06,04,11,23,17.20
2016,06,04,11,24,17.20
2016,06,04,11,25,17.20
2016,06,04,11,26,17.20
2016,06,04,11,27,17.20
2016,06,04,11,28,17.20
2016,06,04,11,29,17.20
2016,06,04,11,30,17.20
2016,06,04,11,31,16.80
2016,06,04,11,32,16.80
2016,06,04,11,33,16.80
2016,06,04,11,34,16.80
2016,06,04,11,35,16.80
2016,06,04,11,36,16.80
2016,06,04,11,37,16.80
2016,06,04,11,38,16.80
2016,06,04,11,39,16.80
2016,06,04,11,40,16.80
2016,06,04,11,41,16.80
2016,06,04,11,42,16.80
2016,06,04,11,43,16.80
2016,06,04,11,44,16.80
2016,06,04,11,45,16.80
2016,06,04,11,46,16.80
2016,06,04,11,47,16.80
2016,06,04,11,48,16.80
2016,06,04,11,49,16.80
2016,06,04,11,50,16.80
2016,06,04,11,51,16.80
2016,06,04,11,52,16.80
2016,06,04,11,53,16.80
2016,06,04,11,54,16.80
2016,06,04,11,55,16.80
2016,06,04,11,56,16.80
2016,06,04,11,57,16.80
2016,06,04,11,58,16.80
2016,06,04,11,59,16.80
2016,06,04,12,00,16.80
2016,06,04,12,01,16.60
2016,06,04,12,02,16.60
2016,06,04,12,03,16.60
2016,06,04,12,04,16.60
2016,06,04,12,05,16.60
2016,06,04,12,06,16.60
2016,06,04,12,07,16.60
2016,06,04,12,08,16.60
2016,06,04,12,09,16.60
2016,06,04,12,10,16.60
2016,06,04,12,11,16.60
2016,06,04,12,12,16.60
2016,06,04,12,13,16.60
2016,06,04,12,14,16.60
2016,06,04,12,15,16.60
2016,06,04,12,16,16.60
2016,06,04,12,17,16.60
2016,06,04,12,18,16.60
2016,06,04,12,19,16.60
2016,06,04,12,20,16.60
2016,06,04,12,21,16.60
2016,06,04,12,22,16.60
2016,06,04,12,23,16.60
2016,06,04,12,24,16.60
2016,06,04,12,25,16.60
2016,06,04,12,26,16.60
2016,06,04,12,27,16.60
2016,06,04,12,28,16.60
2016,06,04,12,29,16.60
2016,06,04,12,30,16.60
2016,06,04,12,31,16.80
2016,06,04,12,32,16.80
2016,06,04,12,33,16.80
2016,06,04,12,34,16.80
2016,06,04,12,35,16.80
2016,06,04,12,36,16.80
2016,06,04,12,37,16.80
2016,06,04,12,38,16.80
2016,06,04,12,39,16.80
2016,06,04,12,40,16.80
2016,06,04,12,41,16.80
2016,06,04,12,42,16.80
2016,06,04,12,43,16.80
2016,06,04,12,44,16.80
2016,06,04,12,45,16.80
2016,06,04,12,46,16.80
2016,06,04,12,47,16.80
2016,06,04,12,48,16.80
2016,06,04,12,49,16.80
2016,06,04,12,50,16.80
2016,06,04,12,51,16.80
2016,06,04,12,52,16.80
2016,06,04,12,53,16.80
2016,06,04,12,54,16.80
2016,06,04,12,55,16.80
2016,06,04,12,56,16.80
2016,06,04,12,57,16.80
2016,06,04,12,58,16.80
2016,06,04,12,59,16.80
2016,06,04,13,00,16.80
2016,06,04,13,01,16.60
2016,06,04,13,02,16.60
2016,06,04,13,03,16.60
2016,06,04,13,04,16.60
2016,06,04,13,05,16.60
2016,06,04,13,06,16.60
2016,06,04,13,07,16.60
2016,06,04,13,08,16.60
2016,06,04,13,09,16.60
2016,06,04,13,10,16.60
2016,06,04,13,11,16.60
2016,06,04,13,12,16.60
2016,06,04,13,13,16.60
2016,06,04,13,14,16.60
2016,06,04,13,15,16.60
2016,06,04,13,16,16.60
2016,06,04,13,17,16.60
2016,06,04,13,18,16.60
2016,06,04,13,19,16.60
2016,06,04,13,20,16.60
2016,06,04,13,21,16.60
2016,06,04,13,22,16.60
2016,06,04,13,23,16.60
2016,06,04,13,24,16.60
2016,06,04,13,25,16.60
2016,06,04,13,26,16.60
2016,06,04,13,27,16.60
2016,06,04,13,28,16.60
2016,06,04,13,29,16.60
2016,06,04,13,30,16.60
2016,06,04,13,31,16.70
2016,06,04,13,32,16.70
2016,06,04,13,33,16.70
2016,06,04,13,34,16.70
2016,06,04,13,35,16.70
2016,06,04,13,36,16.70
2016,06,04,13,37,16.70
2016,06,04,13,38,16.70
2016,06,04,13,39,16.70
2016,06,04,13,40,16.70
2016,06,04,13,41,16.70
2016,06,04,13,42,16.70
2016,06,04,13,43,16.70
2016,06,04,13,44,16.70
2016,06,04,13,45,16.70
2016,06,04,13,46,16.70
2016,06,04,13,47,16.70
2016,06,04,13,48,16.70
2016,06,04,13,49,16.70
2016,06,04,13,50,16.70
2016,06,04,13,51,16.70
2016,06,04,13,52,16.70
2016,06,04,13,53,16.70
2016,06,04,13,54,16.70
2016,06,04,13,55,16.70
2016,06,04,13,56,16.70
2016,06,04,13,57,16.70
2016,06,04,13,58,16.70
2016,06,04,13,59,16.70
2016,06,04,14,00,16.70
2016,06,04,14,01,17.10
2016,06,04,14,02,17.10
2016,06,04,14,03,17.10
2016,06,04,14,04,17.10
2016,06,04,14,05,17.10
2016,06,04,14,06,17.10
2016,06,04,14,07,17.10
2016,06,04,14,08,17.10
2016,06,04,14,09,17.10
2016,06,04,14,10,17.10
2016,06,04,14,11,17.10
2016,06,04,14,12,17.10
2016,06,04,14,13,17.10
2016,06,04,14,14,17.10
2016,06,04,14,15,17.10
2016,06,04,14,16,17.10
2016,06,04,14,17,17.10
2016,06,04,14,18,17.10
2016,06,04,14,19,17.10
2016,06,04,14,20,17.10
2016,06,04,14,21,17.10
2016,06,04,14,22,17.10
2016,06,04,14,23,17.10
2016,06,04,14,24,17.10
2016,06,04,14,25,17.10
2016,06,04,14,26,17.10
2016,06,04,14,27,17.10
2016,06,04,14,28,17.10
2016,06,04,14,29,17.10
2016,06,04,14,30,17.10
2016,06,04,14,31,16.20
2016,06,04,14,32,16.20
2016,06,04,14,33,16.20
2016,06,04,14,34,16.20
2016,06,04,14,35,16.20
2016,06,04,14,36,16.20
2016,06,04,14,37,16.20
2016,06,04,14,38,16.20
2016,06,04,14,39,16.20
2016,06,04,14,40,16.20
2016,06,04,14,41,16.20
2016,06,04,14,42,16.20
2016,06,04,14,43,16.20
2016,06,04,14,44,16.20
2016,06,04,14,45,16.20
2016,06,04,14,46,16.20
2016,06,04,14,47,16.20
2016,06,04,14,48,16.20
2016,06,04,14,49,16.20
2016,06,04,14,50,16.20
2016,06,04,14,51,16.20
2016,06,04,14,52,16.20
2016,06,04,14,53,16.20
2016,06,04,14,55,16.20
2016,06,04,14,56,16.20
2016,06,04,14,57,16.20
2016,06,04,14,58,16.20
2016,06,04,14,59,16.20
2016,06,04,15,00,16.20
2016,06,04,15,01,16.90
2016,06,04,15,02,16.90
2016,06,04,15,03,16.90
2016,06,04,15,04,16.90
2016,06,04,15,05,16.90
2016,06,04,15,06,16.90
2016,06,04,15,07,16.90
2016,06,04,15,08,16.90
2016,06,04,15,09,16.90
2016,06,04,15,10,16.90
2016,06,04,15,11,16.90
2016,06,04,15,12,16.90
2016,06,04,15,13,16.90
2016,06,04,15,14,16.90
2016,06,04,15,15,16.90
2016,06,04,15,16,16.90
2016,06,04,15,17,16.90
2016,06,04,15,18,16.90
2016,06,04,15,19,16.90
2016,06,04,15,20,16.90
2016,06,04,15,21,16.90
2016,06,04,15,22,16.90
2016,06,04,15,23,16.90
2016,06,04,15,24,16.90
2016,06,04,15,25,16.90
2016,06,04,15,26,16.90
2016,06,04,15,27,16.90
2016,06,04,15,28,16.90
2016,06,04,15,29,16.90
2016,06,04,15,30,16.90
2016,06,04,15,31,17.40
2016,06,04,15,32,17.40
2016,06,04,15,33,17.40
2016,06,04,15,34,17.40
2016,06,04,15,35,17.40
2016,06,04,15,36,17.40
2016,06,04,15,37,17.40
2016,06,04,15,38,17.40
2016,06,04,15,39,17.40
2016,06,04,15,40,17.40
2016,06,04,15,41,17.40
2016,06,04,15,42,17.40
2016,06,04,15,43,17.40
2016,06,04,15,44,17.40
2016,06,04,15,45,17.40
2016,06,04,15,46,17.40
2016,06,04,15,47,17.40
2016,06,04,15,48,17.40
2016,06,04,15,49,17.40
2016,06,04,15,50,17.40
2016,06,04,15,51,17.40
2016,06,04,15,52,17.40
2016,06,04,15,53,17.40
2016,06,04,15,54,17.40
2016,06,04,15,55,17.40
2016,06,04,15,56,17.40
2016,06,04,15,57,17.40
2016,06,04,15,58,17.40
2016,06,04,15,59,17.40
2016,06,04,16,00,17.40
2016,06,04,16,01,18.40
2016,06,04,16,02,18.40
2016,06,04,16,03,18.40
2016,06,04,16,04,18.40
2016,06,04,16,05,18.40
2016,06,04,16,06,18.40
2016,06,04,16,07,18.40
2016,06,04,16,08,18.40
2016,06,04,16,09,18.40
2016,06,04,16,10,18.40
2016,06,04,16,11,18.40
2016,06,04,16,12,18.40
2016,06,04,16,13,18.40
2016,06,04,16,14,18.40
2016,06,04,16,15,18.40
2016,06,04,16,16,18.40
2016,06,04,16,17,18.40
2016,06,04,16,18,18.40
2016,06,04,16,19,18.40
2016,06,04,16,20,18.40
2016,06,04,16,21,18.40
2016,06,04,16,22,18.40
2016,06,04,16,23,18.40
2016,06,04,16,24,18.40
2016,06,04,16,25,18.40
2016,06,04,16,26,18.40
2016,06,04,16,27,18.40
2016,06,04,16,28,18.40
2016,06,04,16,29,18.40
2016,06,04,16,30,18.40
2016,06,04,16,31,18.40
2016,06,04,16,32,18.40
2016,06,04,16,33,18.40
2016,06,04,16,34,18.40
2016,06,04,16,35,18.40
2016,06,04,16,36,18.40
2016,06,04,16,37,18.40
2016,06,04,16,38,18.40
2016,06,04,16,39,18.40
2016,06,04,16,40,18.40
2016,06,04,16,41,18.40
2016,06,04,16,42,18.40
2016,06,04,16,43,18.40
2016,06,04,16,44,18.40
2016,06,04,16,45,18.40
2016,06,04,16,46,18.40
2016,06,04,16,47,18.40
2016,06,04,16,48,18.40
2016,06,04,16,49,18.40
2016,06,04,16,50,18.40
2016,06,04,16,51,18.40
2016,06,04,16,52,18.40
2016,06,04,16,53,18.40
2016,06,04,16,54,18.40
2016,06,04,16,55,18.40
2016,06,04,16,56,18.40
2016,06,04,16,57,18.40
2016,06,04,16,58,18.40
2016,06,04,16,59,18.40
2016,06,04,17,00,18.40
2016,06,04,17,01,18.60
2016,06,04,17,02,18.60
2016,06,04,17,03,18.60
2016,06,04,17,04,18.60
2016,06,04,17,05,18.60
2016,06,04,17,06,18.60
2016,06,04,17,07,18.60
2016,06,04,17,08,18.60
2016,06,04,17,09,18.60
2016,06,04,17,10,18.60
2016,06,04,17,11,18.60
2016,06,04,17,12,18.60
2016,06,04,17,13,18.60
2016,06,04,17,14,18.60
2016,06,04,17,15,18.60
2016,06,04,17,16,18.60
2016,06,04,17,17,18.60
2016,06,04,17,18,18.60
2016,06,04,17,19,18.60
2016,06,04,17,20,18.60
2016,06,04,17,21,18.60
2016,06,04,17,22,18.60
2016,06,04,17,23,18.60
2016,06,04,17,24,18.60
2016,06,04,17,25,18.60
2016,06,04,17,26,18.60
2016,06,04,17,27,18.60
2016,06,04,17,28,18.60
2016,06,04,17,29,18.60
2016,06,04,17,30,18.60
2016,06,04,17,31,18.40
2016,06,04,17,32,18.40
2016,06,04,17,33,18.40
2016,06,04,17,34,18.40
2016,06,04,17,35,18.40
2016,06,04,17,36,18.40
2016,06,04,17,37,18.40
2016,06,04,17,38,18.40
2016,06,04,17,39,18.40
2016,06,04,17,40,18.40
2016,06,04,17,41,18.40
2016,06,04,17,42,18.40
2016,06,04,17,43,18.40
2016,06,04,17,44,18.40
2016,06,04,17,45,18.40
2016,06,04,17,46,18.40
2016,06,04,17,47,18.40
2016,06,04,17,48,18.40
2016,06,04,17,49,18.40
2016,06,04,17,50,18.40
2016,06,04,17,51,18.40
2016,06,04,17,52,18.40
2016,06,04,17,53,18.40
2016,06,04,17,54,18.40
2016,06,04,17,55,18.40
2016,06,04,17,56,18.40
2016,06,04,17,57,18.40
2016,06,04,17,58,18.40
2016,06,04,17,59,18.40
2016,06,04,18,00,18.40
2016,06,04,18,01,18.60
2016,06,04,18,02,18.60
2016,06,04,18,03,18.60
2016,06,04,18,04,18.60
2016,06,04,18,05,18.60
2016,06,04,18,06,18.60
2016,06,04,18,07,18.60
2016,06,04,18,08,18.60
2016,06,04,18,09,18.60
2016,06,04,18,10,18.60
2016,06,04,18,11,18.60
2016,06,04,18,12,18.60
2016,06,04,18,13,18.60
2016,06,04,18,14,18.60
2016,06,04,18,15,18.60
2016,06,04,18,16,18.60
2016,06,04,18,17,18.60
2016,06,04,18,18,18.60
2016,06,04,18,19,18.60
2016,06,04,18,20,18.60
2016,06,04,18,21,18.60
2016,06,04,18,22,18.60
2016,06,04,18,23,18.60
2016,06,04,18,24,18.60
2016,06,04,18,25,18.60
2016,06,04,18,26,18.60
2016,06,04,18,27,18.60
2016,06,04,18,28,18.60
2016,06,04,18,29,18.60
2016,06,04,18,30,18.60
2016,06,04,18,31,19.30
2016,06,04,18,32,19.30
2016,06,04,18,33,19.30
2016,06,04,18,34,19.30
2016,06,04,18,35,19.30
2016,06,04,18,36,19.30
2016,06,04,18,37,19.30
2016,06,04,18,38,19.30
2016,06,04,18,39,19.30
2016,06,04,18,40,19.30
2016,06,04,18,41,19.30
2016,06,04,18,42,19.30
2016,06,04,18,43,19.30
2016,06,04,18,44,19.30
2016,06,04,18,45,19.30
2016,06,04,18,46,19.30
2016,06,04,18,47,19.30
2016,06,04,18,48,19.30
2016,06,04,18,49,19.30
2016,06,04,18,50,19.30
2016,06,04,18,51,19.30
2016,06,04,18,52,19.30
2016,06,04,18,53,19.30
2016,06,04,18,54,19.30
2016,06,04,18,55,19.30